User: anonymous   Login
Location: Cheyres
(46.8153°N, 6.7877°E)
Time: 23:40:46
(UTC+00:00)
Language:

Cosmos 2082 Rocket - Orbit

View from above orbital plane
View from above orbital plane
View from above satellite
View from above satellite

Ground track
Ground track

The orbit data is extracted from the following two-line orbital elements,

1 20625U 90046B   21204.49787354  .00000113  00000-0  83313-4 0  9997
2 20625  70.9982 246.4115 0014874 344.1402  15.9252 14.14674306609338
Epoch (UTC): 23 July 2021 11:56:56
Eccentricity: 0.0014874
inclination: 70.9982°
perigee height: 832 km
apogee height: 854 km
right ascension of ascending node: 246.4115°
argument of perigee: 344.1402°
revolutions per day: 14.14674306
mean anomaly at epoch: 15.9252°
orbit number at epoch: 60933

The dashed part of the orbit path shows where the satellite is in the earth's shadow,  

DLR